Flag for Cyprus Weather past 2 weeks in Nicosia, Cyprus

Now
75 °F

Passing clouds.


Feels Like: 78 °F
Forecast: 54 / 78 °F
Wind: 13 mph from Northeast

Location: Ercan


UV Index: 5 (Moderate)

Visibility: N/A


Pressure: 29.80 "Hg

Humidity: 44%

Dew point: 52 °F

Location of NicosiaLocation

Historic Weather in Nicosia

°F

Nicosia temperature yesterday

Maximum temperature yesterday: 77 °F (at 1:50 PM)
Minimum temperature yesterday: 55 °F (at 6:20 AM)
Average temperature yesterday: 66 °F

Past Weeks' High & Low Weather Summary

 TemperatureHumidityPressure
High86 °F (Apr 7, 1:50 PM)94% (Apr 3, 2:50 AM)30.12 "Hg (Apr 3, 2:50 AM)
Low45 °F (Apr 6, 4:20 AM)12% (Apr 7, 11:50 AM)29.77 "Hg (Apr 7, 1:50 PM)
Average62 °F63%29.95 "Hg
* Reported Apr 2 8:20 AM — Apr 17 8:50 AM, Nicosia, Weather by CustomWeather, © 2014

Note: Actual official high and low records may vary slightly from our data, if they occured in-between our weather recording intervals... More about our weather records

Advertising

Historic Weather Conditions — Data for Previous 24 hours

 ConditionsComfort  
Time TempWeatherWind HumidityBarometerVisibility
8:50 AM
Apr 17
70 °FPassing clouds.8 mph57%29.80 "HgN/A
8:20 AM66 °FSunny.8 mph64%29.80 "Hg10 mi
7:50 AM61 °FSunny.10 mph72%29.83 "Hg10 mi
7:20 AM61 °FSunny.8 mph72%29.83 "Hg10 mi
6:50 AM59 °FClear.8 mph77%29.83 "Hg10 mi
6:20 AM59 °FClear.9 mph82%29.80 "Hg10 mi
5:50 AM59 °FClear.10 mph77%29.80 "Hg10 mi
5:20 AM61 °FClear.10 mph72%29.80 "Hg10 mi
4:50 AM61 °FClear.12 mph72%29.83 "Hg10 mi
4:20 AM61 °FClear.12 mph77%29.83 "Hg10 mi
3:50 AM59 °FClear.13 mph82%29.83 "Hg10 mi
3:20 AM59 °FClear.10 mph77%29.83 "Hg10 mi
2:50 AM59 °FClear.10 mph77%29.86 "Hg10 mi
2:20 AM59 °FClear.9 mph77%29.86 "Hg10 mi
1:50 AM61 °FClear.10 mph72%29.86 "Hg10 mi
1:20 AM59 °FClear.9 mph77%29.86 "Hg10 mi
12:50 AM59 °FClear.9 mph77%29.89 "Hg10 mi
12:20 AM59 °FClear.8 mph77%29.86 "Hg10 mi
11:20 PM
Apr 16
61 °FClear.5 mph72%29.89 "Hg10 mi
10:50 PM61 °FClear.5 mph72%29.89 "Hg10 mi
10:20 PM59 °FClear.6 mph77%29.89 "Hg10 mi
9:50 PM63 °FClear.6 mph68%29.89 "Hg10 mi
9:20 PM64 °FPassing clouds.No wind64%29.89 "HgN/A
8:50 PM64 °FClear.5 mph64%29.89 "Hg10 mi
8:20 PM64 °FClear.3 mph64%29.89 "Hg10 mi
7:50 PM66 °FSunny.5 mph60%29.89 "Hg10 mi
7:20 PM68 °FSunny.6 mph56%29.89 "Hg10 mi
6:50 PM72 °FPassing clouds.9 mph47%29.86 "HgN/A
6:20 PM73 °FPassing clouds.10 mph47%29.89 "HgN/A
5:50 PM73 °FPassing clouds.10 mph47%29.86 "HgN/A
5:20 PM73 °FScattered clouds.12 mph47%29.89 "HgN/A
4:50 PM75 °FScattered clouds.13 mph44%29.86 "HgN/A
4:20 PM73 °FBroken clouds.15 mph47%29.86 "HgN/A
3:50 PM75 °FBroken clouds.14 mph44%29.86 "HgN/A
3:20 PM75 °FScattered clouds.14 mph44%29.89 "HgN/A
2:50 PM77 °FPassing clouds.13 mph42%29.89 "HgN/A
2:20 PM77 °FScattered clouds.12 mph42%29.89 "HgN/A
1:50 PM77 °FBroken clouds.7 mph42%29.92 "HgN/A
1:20 PM75 °FBroken clouds.8 mph44%29.92 "HgN/A
12:50 PM75 °FBroken clouds.7 mph44%29.92 "HgN/A
12:20 PM73 °FScattered clouds.8 mph47%29.92 "HgN/A
11:50 AM73 °FScattered clouds.7 mph47%29.92 "HgN/A
11:20 AM72 °FScattered clouds.9 mph50%29.95 "HgN/A
10:50 AM72 °FScattered clouds.8 mph53%29.92 "HgN/A
10:20 AM70 °FPassing clouds.7 mph60%29.95 "HgN/A
Weather by CustomWeather, © 2014

See weather overview